******** Week 143 almanac for PRN-1 ******** ID: 1 Health: 0 Eccentricity: 0.01122665405 Time of Applicability(s): 233472 Orbital Inclination(rad): 0.9863760119 Rate of Right Ascen(r/s): -8.114623721e-09 SQRT(A) (m 1/2): 5153.624023 Right Ascen at Week(rad): -1.159655396 Argument of Perigee(rad): 0.8841706474 Mean Anom(rad): 2.049262762 Af0(s): 0.0003685467407 Af1(s/s): -1.091394e-11 week: 143 ******** Week 143 almanac for PRN-2 ******** ID: 2 Health: 0 Eccentricity: 0.02065467834 Time of Applicability(s): 233472 Orbital Inclination(rad): 0.9647145254 Rate of Right Ascen(r/s): -8.240343243e-09 SQRT(A) (m 1/2): 5153.616699 Right Ascen at Week(rad): -1.248092609 Argument of Perigee(rad): -1.462312502 Mean Anom(rad): 2.218224229 Af0(s): -0.0005117448608 Af1(s/s): 0 week: 143 ******** Week 143 almanac for PRN-3 ******** ID: 3 Health: 0 Eccentricity: 0.003845691681 Time of Applicability(s): 233472 Orbital Inclination(rad): 0.9724383583 Rate of Right Ascen(r/s): -7.783181343e-09 SQRT(A) (m 1/2): 5153.665039 Right Ascen at Week(rad): -0.1242127461 Argument of Perigee(rad): 0.9846212971 Mean Anom(rad): 0.8773961898 Af0(s): -5.200352783e-05 Af1(s/s): -1.455192e-11 week: 143 ******** Week 143 almanac for PRN-4 ******** ID: 4 Health: 0 Eccentricity: 0.00163602829 Time of Applicability(s): 233472 Orbital Inclination(rad): 0.9608496129 Rate of Right Ascen(r/s): -7.680319916e-09 SQRT(A) (m 1/2): 5153.615234 Right Ascen at Week(rad): 0.9565654776 Argument of Perigee(rad): -3.115740435 Mean Anom(rad): -2.400701281 Af0(s): -0.0001552569092 Af1(s/s): 0 week: 143 ******** Week 143 almanac for PRN-5 ******** ID: 5 Health: 0 Eccentricity: 0.005895137787 Time of Applicability(s): 233472 Orbital Inclination(rad): 0.9594234901 Rate of Right Ascen(r/s): -7.931758961e-09 SQRT(A) (m 1/2): 5153.598633 Right Ascen at Week(rad): -0.164037449 Argument of Perigee(rad): 1.015846195 Mean Anom(rad): -1.591322683 Af0(s): -5.275720215e-05 Af1(s/s): 0 week: 143 ******** Week 143 almanac for PRN-6 ******** ID: 6 Health: 0 Eccentricity: 0.002583503723 Time of Applicability(s): 233472 Orbital Inclination(rad): 0.9857588243 Rate of Right Ascen(r/s): -8.103194673e-09 SQRT(A) (m 1/2): 5153.59668 Right Ascen at Week(rad): -1.167926009 Argument of Perigee(rad): -1.011387314 Mean Anom(rad): 2.428840241 Af0(s): 0.0001273709595 Af1(s/s): 1.091394e-11 week: 143 ******** Week 143 almanac for PRN-7 ******** ID: 7 Health: 0 Eccentricity: 0.01539897919 Time of Applicability(s): 233472 Orbital Inclination(rad): 0.9506210769 Rate of Right Ascen(r/s): -8.068907531e-09 SQRT(A) (m 1/2): 5153.637695 Right Ascen at Week(rad): 1.976269095 Argument of Perigee(rad): -2.297369174 Mean Anom(rad): 1.392301409 Af0(s): 0.000235900061 Af1(s/s): 3.637979e-12 week: 143 ******** Week 143 almanac for PRN-8 ******** ID: 8 Health: 0 Eccentricity: 0.007070541382 Time of Applicability(s): 233472 Orbital Inclination(rad): 0.9652598076 Rate of Right Ascen(r/s): -7.806039438e-09 SQRT(A) (m 1/2): 5153.659668 Right Ascen at Week(rad): -2.239104869 Argument of Perigee(rad): 0.07283674844 Mean Anom(rad): -1.92395271 Af0(s): -3.994473877e-05 Af1(s/s): 0 week: 143 ******** Week 143 almanac for PRN-9 ******** ID: 9 Health: 0 Eccentricity: 0.002353668213 Time of Applicability(s): 233472 Orbital Inclination(rad): 0.9538628097 Rate of Right Ascen(r/s): -7.726036106e-09 SQRT(A) (m 1/2): 5153.595215 Right Ascen at Week(rad): 0.9039386264 Argument of Perigee(rad): 1.857019316 Mean Anom(rad): -1.603589286 Af0(s): -0.000283381543 Af1(s/s): 0 week: 143 ******** Week 143 almanac for PRN-10 ******** ID: 10 Health: 0 Eccentricity: 0.007419586182 Time of Applicability(s): 233472 Orbital Inclination(rad): 0.9722825634 Rate of Right Ascen(r/s): -7.783181343e-09 SQRT(A) (m 1/2): 5153.638184 Right Ascen at Week(rad): -0.1270148077 Argument of Perigee(rad): -2.544370042 Mean Anom(rad): 0.05133292938 Af0(s): -0.0002253486206 Af1(s/s): -1.091394e-11 week: 143 ******** Week 143 almanac for PRN-11 ******** ID: 11 Health: 255 Eccentricity: 0.0003232955933 Time of Applicability(s): 233472 Orbital Inclination(rad): 0.9614847768 Rate of Right Ascen(r/s): -8.343204671e-09 SQRT(A) (m 1/2): 5153.70166 Right Ascen at Week(rad): -1.11489132 Argument of Perigee(rad): 2.783808114 Mean Anom(rad): -1.999714733 Af0(s): -9.797766113e-06 Af1(s/s): -3.637979e-11 week: 143 ******** Week 143 almanac for PRN-12 ******** ID: 12 Health: 0 Eccentricity: 0.008530139923 Time of Applicability(s): 233472 Orbital Inclination(rad): 0.9712159674 Rate of Right Ascen(r/s): -7.566029441e-09 SQRT(A) (m 1/2): 5153.579102 Right Ascen at Week(rad): 3.088444864 Argument of Perigee(rad): 1.233140416 Mean Anom(rad): 0.7247164154 Af0(s): -0.000119080542 Af1(s/s): -7.275958e-12 week: 143 ******** Week 143 almanac for PRN-13 ******** ID: 13 Health: 0 Eccentricity: 0.005781650543 Time of Applicability(s): 233472 Orbital Inclination(rad): 0.9682438796 Rate of Right Ascen(r/s): -7.634603726e-09 SQRT(A) (m 1/2): 5153.626465 Right Ascen at Week(rad): 1.05613641 Argument of Perigee(rad): 0.9751234243 Mean Anom(rad): -2.553770917 Af0(s): 0.0001899259277 Af1(s/s): 7.275958e-12 week: 143 ******** Week 143 almanac for PRN-14 ******** ID: 14 Health: 0 Eccentricity: 0.001282215118 Time of Applicability(s): 233472 Orbital Inclination(rad): 0.9546118238 Rate of Right Ascen(r/s): -7.748894201e-09 SQRT(A) (m 1/2): 5153.59375 Right Ascen at Week(rad): 3.05782854 Argument of Perigee(rad): 3.059699952 Mean Anom(rad): 0.743291964 Af0(s): -5.200352783e-05 Af1(s/s): -7.275958e-12 week: 143 ******** Week 143 almanac for PRN-15 ******** ID: 15 Health: 0 Eccentricity: 0.01391124725 Time of Applicability(s): 233472 Orbital Inclination(rad): 0.9297805098 Rate of Right Ascen(r/s): -7.954617056e-09 SQRT(A) (m 1/2): 5153.666992 Right Ascen at Week(rad): 0.7989819082 Argument of Perigee(rad): 1.068747934 Mean Anom(rad): -2.94276575 Af0(s): -7.461375732e-05 Af1(s/s): 3.637979e-12 week: 143 ******** Week 143 almanac for PRN-16 ******** ID: 16 Health: 0 Eccentricity: 0.01259565353 Time of Applicability(s): 233472 Orbital Inclination(rad): 0.971191999 Rate of Right Ascen(r/s): -7.577458489e-09 SQRT(A) (m 1/2): 5153.536621 Right Ascen at Week(rad): 3.107076589 Argument of Perigee(rad): 0.6924930817 Mean Anom(rad): -1.133829391 Af0(s): -0.0003564879517 Af1(s/s): -7.275958e-12 week: 143 ******** Week 143 almanac for PRN-17 ******** ID: 17 Health: 0 Eccentricity: 0.01374530792 Time of Applicability(s): 233472 Orbital Inclination(rad): 0.9802700493 Rate of Right Ascen(r/s): -7.680319916e-09 SQRT(A) (m 1/2): 5153.694336 Right Ascen at Week(rad): -2.157822612 Argument of Perigee(rad): -1.512407686 Mean Anom(rad): -2.020783 Af0(s): 0.0004401458008 Af1(s/s): 3.637979e-12 week: 143 ******** Week 143 almanac for PRN-18 ******** ID: 18 Health: 0 Eccentricity: 0.002094745636 Time of Applicability(s): 233472 Orbital Inclination(rad): 0.9701613556 Rate of Right Ascen(r/s): -8.263201338e-09 SQRT(A) (m 1/2): 5153.579102 Right Ascen at Week(rad): -1.151213633 Argument of Perigee(rad): 3.100174425 Mean Anom(rad): 2.244300779 Af0(s): 0.0002110288086 Af1(s/s): -7.275958e-12 week: 143 ******** Week 143 almanac for PRN-19 ******** ID: 19 Health: 0 Eccentricity: 0.008926391602 Time of Applicability(s): 233472 Orbital Inclination(rad): 0.9789577767 Rate of Right Ascen(r/s): -7.726036106e-09 SQRT(A) (m 1/2): 5153.63623 Right Ascen at Week(rad): -2.112889259 Argument of Perigee(rad): 1.992290506 Mean Anom(rad): 0.3726494736 Af0(s): 7.988947754e-05 Af1(s/s): 3.637979e-12 week: 143 ******** Week 143 almanac for PRN-20 ******** ID: 20 Health: 0 Eccentricity: 0.005352973938 Time of Applicability(s): 233472 Orbital Inclination(rad): 0.9415610029 Rate of Right Ascen(r/s): -8.183198006e-09 SQRT(A) (m 1/2): 5153.668945 Right Ascen at Week(rad): -0.2772438081 Argument of Perigee(rad): 3.09136939 Mean Anom(rad): 3.125104234 Af0(s): 0.0004084914795 Af1(s/s): 0 week: 143 ******** Week 143 almanac for PRN-21 ******** ID: 21 Health: 0 Eccentricity: 0.02446699142 Time of Applicability(s): 233472 Orbital Inclination(rad): 0.9589501132 Rate of Right Ascen(r/s): -8.251772291e-09 SQRT(A) (m 1/2): 5153.546875 Right Ascen at Week(rad): -1.249456938 Argument of Perigee(rad): -1.032758558 Mean Anom(rad): -1.870417305 Af0(s): 0.0001228489136 Af1(s/s): 0 week: 143 ******** Week 143 almanac for PRN-22 ******** ID: 22 Health: 255 Eccentricity: 0.006852149963 Time of Applicability(s): 233472 Orbital Inclination(rad): 0.9383012937 Rate of Right Ascen(r/s): -8.171768958e-09 SQRT(A) (m 1/2): 5153.591309 Right Ascen at Week(rad): -0.2314326103 Argument of Perigee(rad): -0.8633738976 Mean Anom(rad): -3.132020255 Af0(s): -0.0003361387451 Af1(s/s): 7.275958e-12 week: 143 ******** Week 143 almanac for PRN-23 ******** ID: 23 Health: 0 Eccentricity: 0.001960754395 Time of Applicability(s): 233472 Orbital Inclination(rad): 0.9673210943 Rate of Right Ascen(r/s): -7.840326581e-09 SQRT(A) (m 1/2): 5153.654785 Right Ascen at Week(rad): -0.151645386 Argument of Perigee(rad): 2.899183618 Mean Anom(rad): 1.408734778 Af0(s): 1.130511475e-05 Af1(s/s): -3.637979e-12 week: 143 ******** Week 143 almanac for PRN-24 ******** ID: 24 Health: 0 Eccentricity: 0.01225090027 Time of Applicability(s): 233472 Orbital Inclination(rad): 0.934052886 Rate of Right Ascen(r/s): -8.251772291e-09 SQRT(A) (m 1/2): 5153.626953 Right Ascen at Week(rad): 1.894210111 Argument of Perigee(rad): 0.7982366392 Mean Anom(rad): 2.359614864 Af0(s): 0.0002185655518 Af1(s/s): 0 week: 143 ******** Week 143 almanac for PRN-25 ******** ID: 25 Health: 0 Eccentricity: 0.01030826569 Time of Applicability(s): 233472 Orbital Inclination(rad): 0.9586025707 Rate of Right Ascen(r/s): -7.691748963e-09 SQRT(A) (m 1/2): 5153.678711 Right Ascen at Week(rad): 3.012274254 Argument of Perigee(rad): 0.9676804716 Mean Anom(rad): 0.50132522 Af0(s): 0.0002102751343 Af1(s/s): 7.275958e-12 week: 143 ******** Week 143 almanac for PRN-26 ******** ID: 26 Health: 0 Eccentricity: 0.006738185883 Time of Applicability(s): 233472 Orbital Inclination(rad): 0.939433803 Rate of Right Ascen(r/s): -7.954617056e-09 SQRT(A) (m 1/2): 5153.62207 Right Ascen at Week(rad): 2.966091171 Argument of Perigee(rad): 0.339980851 Mean Anom(rad): -0.1461094231 Af0(s): 0.000135661377 Af1(s/s): 3.637979e-12 week: 143 ******** Week 143 almanac for PRN-27 ******** ID: 27 Health: 0 Eccentricity: 0.009954452515 Time of Applicability(s): 233472 Orbital Inclination(rad): 0.9739303943 Rate of Right Ascen(r/s): -7.737465153e-09 SQRT(A) (m 1/2): 5153.608398 Right Ascen at Week(rad): -2.220019242 Argument of Perigee(rad): 0.6276872619 Mean Anom(rad): -2.005592246 Af0(s): 3.843739014e-05 Af1(s/s): 2.546585e-11 week: 143 ******** Week 143 almanac for PRN-29 ******** ID: 29 Health: 0 Eccentricity: 0.001753330231 Time of Applicability(s): 233472 Orbital Inclination(rad): 0.9822414543 Rate of Right Ascen(r/s): -7.691748963e-09 SQRT(A) (m 1/2): 5153.72998 Right Ascen at Week(rad): -2.144897626 Argument of Perigee(rad): 2.302507036 Mean Anom(rad): -1.902687452 Af0(s): -0.0003655320435 Af1(s/s): -3.637979e-12 week: 143 ******** Week 143 almanac for PRN-30 ******** ID: 30 Health: 0 Eccentricity: 0.005392551422 Time of Applicability(s): 233472 Orbital Inclination(rad): 0.9358085749 Rate of Right Ascen(r/s): -8.228914196e-09 SQRT(A) (m 1/2): 5153.524414 Right Ascen at Week(rad): 1.990055448 Argument of Perigee(rad): -2.753479412 Mean Anom(rad): 1.396812346 Af0(s): -0.0003986937134 Af1(s/s): -3.637979e-12 week: 143 ******** Week 143 almanac for PRN-31 ******** ID: 31 Health: 0 Eccentricity: 0.01046276093 Time of Applicability(s): 233472 Orbital Inclination(rad): 0.9548754767 Rate of Right Ascen(r/s): -8.023191341e-09 SQRT(A) (m 1/2): 5153.601074 Right Ascen at Week(rad): 1.994200117 Argument of Perigee(rad): 0.362226943 Mean Anom(rad): 0.940764277 Af0(s): -0.0001251099365 Af1(s/s): -3.637979e-12 week: 143 ******** Week 143 almanac for PRN-32 ******** ID: 32 Health: 0 Eccentricity: 0.005375862122 Time of Applicability(s): 233472 Orbital Inclination(rad): 0.9577337144 Rate of Right Ascen(r/s): -7.646032773e-09 SQRT(A) (m 1/2): 5153.710449 Right Ascen at Week(rad): 0.9149543761 Argument of Perigee(rad): -2.380880496 Mean Anom(rad): -1.310921032 Af0(s): -3.617636719e-05 Af1(s/s): -7.275958e-12 week: 143